[[{"header":{"parameterUnit":"m.s-1","parameterCategory":1,"la1":30.2991,"la2":30.254,"lo1":-89.0895,"lo2":-89.0444,"dy":0.0017,"dx":0.0017,"nx":28,"ny":28,"refTime":"2025-11-11T03:00:00:Z","depth":0,"parameterNumber":2,"parameterNumberName":"U-component_of_WINDS"},"data":[0,0,0,0,0,0,0,0,0,0,0,0,0,0,0,0,0,0,0,0,0,0,0,0,0,0,0,0,0,0,0,0,0,0,0,0,0,0,0,0,0,0,0,0,0,0,0,0,0,0,0,0,0,0,0,0,0,0,2.4719,2.472,0,2.4802,2.4803,2.4804,2.4808,2.4807,2.4806,2.4805,2.4892,2.4895,2.4898,0,0,0,0,0,0,0,0,0,0,0,0,0,2.4566,2.4569,2.4719,2.472,2.4721,2.4802,2.4803,2.4804,2.4808,2.4807,2.4806,2.4805,2.4891,2.4895,2.4899,0,0,0,0,0,0,0,0,0,0,0,0,0,2.4639,2.457,2.4719,2.4733,2.4735,2.4802,2.4803,2.4804,2.4808,2.4807,2.4805,2.4804,2.489,2.4894,2.4899,2.4958,0,0,2.4914,2.4916,0,0,0,0,0,0,0,0,2.4635,2.4645,2.473,2.4732,2.4734,2.4793,2.4781,2.4856,2.4809,2.478,2.4805,2.4803,2.486,2.4868,2.4886,2.4963,2.4966,2.4914,2.4917,2.4919,2.4921,0,0,0,0,0,0,0,2.463,2.4641,2.4752,2.4731,2.4734,2.4735,2.4744,2.4795,2.4828,2.4783,2.4783,2.4793,2.4861,2.4882,2.4889,2.4968,2.4914,2.4919,2.4922,2.4924,2.5096,2.5098,0,0,0,0,0,0,2.4622,2.4637,2.4749,2.4754,2.468,2.4739,2.4749,2.4776,2.4827,2.4834,2.4794,2.4793,2.4874,2.4883,2.4892,2.4964,2.4919,2.4924,2.4927,2.5094,2.5096,2.5098,0,0,0,0,0,0,2.4619,2.4632,2.4746,2.4696,2.4711,2.4744,2.4773,2.4778,2.4798,2.4836,2.4842,2.4809,2.4873,2.4885,2.4942,2.4967,2.4926,2.4931,2.5092,2.5095,2.5097,2.5109,0,0,0,0,0,0,2.4614,2.4631,2.4653,2.4696,2.4713,2.4794,2.4775,2.4781,2.4806,2.4806,2.4851,2.4857,2.4873,2.4934,2.4946,2.4973,2.4934,2.509,2.5093,2.5096,2.5106,2.5111,2.5115,0,0,0,0,0,2.4609,2.4654,2.4654,2.4668,2.4742,2.4795,2.4805,2.4822,2.4808,2.4831,2.4855,2.4856,2.4962,2.494,2.4954,2.4982,2.5089,2.5093,2.5096,2.5104,2.511,2.5115,0,0,0,0,0,0,2.4613,2.4659,2.4661,2.4721,2.4754,2.4796,2.4825,2.4828,2.4866,2.4864,2.4884,2.4894,2.495,2.4972,2.4946,2.5042,2.5024,2.5031,2.5025,2.5031,2.5036,2.5029,2.4938,0,0,0,0,0,2.4621,2.466,2.4699,2.4748,2.4765,2.4792,2.4816,2.4826,2.4862,2.4876,2.4904,2.4939,2.498,2.5007,2.5048,2.511,2.5119,2.5136,2.514,2.5144,2.5149,2.5183,2.5191,2.511,2.511,2.511,0,0,2.4638,2.4668,2.4692,2.475,2.4777,2.4817,2.4804,2.4847,2.4878,2.4883,2.4938,2.496,2.5,2.5059,2.5087,2.5079,2.5174,2.5149,2.5151,2.5155,2.5188,2.5195,2.5202,2.5113,2.5113,2.5112,0,0,2.4689,2.4716,2.4759,2.4787,2.4827,2.4845,2.4856,2.4897,2.4912,2.4967,2.4971,2.5008,2.5079,2.5107,2.5131,2.5193,2.5194,2.5206,2.523,2.5263,2.5269,2.5275,2.5296,2.5303,2.5211,2.5211,2.5211,0,2.4705,2.4765,2.4782,2.4825,2.485,2.4856,2.4901,2.4926,2.4978,2.4996,2.4986,2.5075,2.5103,2.5169,2.5183,2.5203,2.5215,2.52,2.5267,2.5273,2.5278,2.5299,2.5307,2.5212,2.5212,2.5212,2.5212,0,2.4782,2.4824,2.4855,2.4904,2.4933,2.4976,2.5,2.5027,2.5035,2.5054,2.511,2.5144,2.519,2.5207,2.5215,2.5274,2.5268,2.5262,2.5245,2.5286,2.5306,2.5314,2.5213,2.5213,2.5213,2.5213,0,0,2.4838,2.4895,2.4906,2.4928,2.4974,2.5006,2.5051,2.5095,2.5118,2.5154,2.5192,2.5251,2.5246,2.5273,2.5285,2.5314,2.536,2.5305,2.5306,2.5313,2.5426,2.5429,2.5437,2.5361,2.5363,2.5364,2.5422,0,2.4893,2.4971,2.4987,2.5054,2.5093,2.5099,2.5137,2.517,2.5189,2.5225,2.5247,2.5288,2.5279,2.5295,2.5324,2.5348,2.5382,2.5344,2.5396,2.5398,2.5385,2.5448,2.5451,2.5504,2.543,2.5431,2.5432,0,2.4968,2.5004,2.5075,2.5115,2.5132,2.5166,2.5208,2.5242,2.5279,2.5291,2.5321,2.5329,2.5376,2.5357,2.5421,2.5394,2.5417,2.5432,2.5434,2.5439,2.5417,2.5454,2.5522,2.5529,2.5444,2.5443,2.5443,0,2.5,2.5067,2.5118,2.5137,2.5185,2.5208,2.523,2.5265,2.5291,2.5328,2.5345,2.5388,2.5411,2.5444,2.5464,2.5448,2.5526,2.5509,2.5537,2.5537,2.5553,2.5551,2.5624,2.5569,2.5569,2.5568,2.5568,0,2.506,2.5102,2.5133,2.5164,2.5212,2.5231,2.5279,2.53,2.5331,2.5367,2.5376,2.5409,2.5434,2.5471,2.5487,2.5537,2.5548,2.5559,2.5562,2.5557,2.5556,2.5572,2.5568,2.5571,2.557,2.557,2.5569,0,2.5103,2.5126,2.5181,2.5222,2.5233,2.5267,2.5302,2.5332,2.5352,2.5397,2.5408,2.5439,2.5483,2.5506,2.5562,2.5572,2.5629,2.5631,2.5616,2.5617,2.5644,2.5641,2.5729,2.5742,2.5678,2.5679,2.5679,0,2.5139,2.5172,2.5216,2.524,2.5261,2.53,2.5327,2.5347,2.5374,2.5418,2.5443,2.5487,2.5524,2.5594,2.5621,2.5664,2.5666,2.5694,2.5673,2.5666,2.5666,2.5663,2.5666,2.5698,2.5698,2.5699,2.5699,0,2.52,2.521,2.5246,2.5287,2.5318,2.5351,2.5384,2.5404,2.5429,2.5459,2.5504,2.5532,2.5588,2.5632,2.5676,2.5699,2.5703,2.5706,2.5715,2.5709,2.5699,2.5704,2.5625,2.5704,2.5703,2.5703,2.5703,2.5703,2.5241,2.527,2.5305,2.5346,2.5373,2.5403,2.5434,2.5457,2.5494,2.554,2.555,2.5597,2.5634,2.5693,2.5717,2.5755,2.5749,2.5762,2.5765,2.5767,2.5768,2.5694,2.5763,2.5763,2.5763,2.5763,2.5763,0,2.5301,2.5324,2.5362,2.5407,2.5439,2.544,2.5477,2.5504,2.5545,2.5578,2.5613,2.5664,2.5707,2.5737,2.5781,2.5805,2.5808,2.5815,2.5813,2.5818,2.5771,2.5759,2.5812,2.5812,2.5812,2.5812,2.5812,2.5812,2.5336,2.5386,2.5399,2.5462,2.5485,2.553,2.5551,2.5579,2.5606,2.5662,2.5697,2.5716,2.5749,2.5794,2.5834,2.5842,2.5857,2.5864,2.5872,2.5827,2.5822,2.5817,2.5805,2.5867,2.5867,2.5916,2.5917,2.5917]},{"header":{"parameterUnit":"m.s-1","parameterCategory":1,"la1":30.2991,"la2":30.254,"lo1":-89.0895,"lo2":-89.0444,"dy":0.0017,"dx":0.0017,"nx":28,"ny":28,"refTime":"2025-11-11T03:00:00:Z","depth":0,"parameterNumber":3,"parameterNumberName":"V-component_of_WINDS"},"data":[0,0,0,0,0,0,0,0,0,0,0,0,0,0,0,0,0,0,0,0,0,0,0,0,0,0,0,0,0,0,0,0,0,0,0,0,0,0,0,0,0,0,0,0,0,0,0,0,0,0,0,0,0,0,0,0,0,0,2.2101,2.2101,0,2.2084,2.2083,2.2083,2.2068,2.2068,2.2068,2.2068,2.2049,2.2049,2.2049,0,0,0,0,0,0,0,0,0,0,0,0,0,2.212,2.212,2.2101,2.2101,2.21,2.2084,2.2083,2.2083,2.2068,2.2068,2.2068,2.2068,2.2049,2.2049,2.2048,0,0,0,0,0,0,0,0,0,0,0,0,0,2.2108,2.2119,2.2101,2.2091,2.209,2.2084,2.2083,2.2083,2.2068,2.2068,2.2068,2.2068,2.2049,2.2049,2.2048,2.205,0,0,2.2047,2.2047,0,0,0,0,0,0,0,0,2.2109,2.2107,2.2093,2.2092,2.209,2.2078,2.2083,2.2072,2.2068,2.2076,2.2068,2.2067,2.2059,2.2058,2.2055,2.2049,2.2049,2.2047,2.2047,2.2046,2.2046,0,0,0,0,0,0,0,2.2109,2.2108,2.2094,2.2092,2.2091,2.2087,2.2085,2.2081,2.2069,2.2076,2.2075,2.2073,2.2058,2.2055,2.2054,2.2048,2.2047,2.2046,2.2046,2.2046,2.2042,2.2043,0,0,0,0,0,0,2.2112,2.2109,2.2094,2.2093,2.2099,2.2087,2.2085,2.2082,2.2069,2.2067,2.2073,2.2072,2.2056,2.2055,2.2054,2.2054,2.2046,2.2046,2.2046,2.2042,2.2043,2.2043,0,0,0,0,0,0,2.2112,2.2111,2.2095,2.2101,2.2098,2.2087,2.2084,2.2082,2.2079,2.2067,2.2065,2.2072,2.2056,2.2054,2.2051,2.2053,2.2046,2.2045,2.2042,2.2042,2.2043,2.2056,0,0,0,0,0,0,2.2113,2.2111,2.2112,2.2101,2.2098,2.2093,2.2084,2.2082,2.2078,2.2077,2.2066,2.2064,2.2056,2.2052,2.2051,2.2052,2.2045,2.2042,2.2042,2.2043,2.2055,2.2057,2.2058,0,0,0,0,0,2.2114,2.2116,2.2112,2.211,2.2099,2.2094,2.2092,2.2083,2.2079,2.2079,2.2071,2.2064,2.2053,2.2052,2.205,2.2052,2.2042,2.2042,2.2043,2.2055,2.2056,2.2058,0,0,0,0,0,0,2.2128,2.2115,2.211,2.2109,2.2103,2.2091,2.2091,2.2085,2.2079,2.2078,2.2067,2.2065,2.2062,2.2057,2.2055,2.2052,2.2046,2.2047,2.2056,2.2058,2.2059,2.206,2.2044,0,0,0,0,0,2.2131,2.2128,2.2116,2.2117,2.2114,2.2103,2.21,2.2094,2.2087,2.2084,2.2076,2.2069,2.2063,2.206,2.2055,2.2054,2.2051,2.2055,2.2056,2.2057,2.2057,2.2056,2.2057,2.2044,2.2044,2.2044,0,0,2.2137,2.213,2.2128,2.2119,2.2114,2.211,2.2101,2.2098,2.2095,2.2083,2.2079,2.2073,2.2065,2.2062,2.2061,2.2058,2.206,2.2058,2.2059,2.2058,2.2056,2.2057,2.2058,2.2045,2.2045,2.2045,0,0,2.2146,2.2141,2.214,2.2134,2.2126,2.2119,2.2119,2.2108,2.2103,2.21,2.209,2.2087,2.2078,2.2072,2.2068,2.2075,2.2067,2.2073,2.208,2.2078,2.2079,2.208,2.2082,2.2083,2.2073,2.2073,2.2073,0,2.2155,2.215,2.214,2.2138,2.2134,2.2123,2.2122,2.2117,2.2107,2.2104,2.2101,2.2089,2.2083,2.2079,2.208,2.2077,2.2076,2.2074,2.208,2.2081,2.2081,2.2083,2.2083,2.2074,2.2074,2.2074,2.2074,0,2.2161,2.2157,2.2157,2.2148,2.2144,2.2142,2.2132,2.2129,2.2123,2.2116,2.2112,2.2104,2.2096,2.2095,2.2089,2.2089,2.2088,2.2082,2.2076,2.2083,2.2084,2.2085,2.2075,2.2075,2.2075,2.2075,0,0,2.2178,2.2163,2.2164,2.2159,2.2149,2.2145,2.2143,2.2136,2.2133,2.2127,2.2123,2.2116,2.2111,2.2107,2.21,2.2098,2.2103,2.2093,2.2093,2.2095,2.2102,2.2106,2.2107,2.2098,2.2099,2.2099,2.2103,0,2.2185,2.218,2.2171,2.2169,2.2165,2.2155,2.2152,2.2145,2.2139,2.2134,2.2127,2.2122,2.2116,2.2113,2.2111,2.2103,2.2104,2.2103,2.2095,2.2095,2.2097,2.2108,2.2112,2.2116,2.2103,2.2103,2.2104,0,2.2193,2.2187,2.2184,2.2173,2.2171,2.2169,2.2162,2.2158,2.215,2.2145,2.2139,2.2132,2.2128,2.2122,2.2116,2.2115,2.2111,2.2107,2.2107,2.2105,2.2099,2.2106,2.2117,2.2118,2.2104,2.2104,2.2104,0,2.2205,2.2196,2.2193,2.219,2.2177,2.2176,2.2171,2.2162,2.2158,2.2152,2.2149,2.2142,2.2138,2.2132,2.2122,2.2119,2.2117,2.2111,2.2112,2.2112,2.2112,2.2112,2.2122,2.211,2.211,2.211,2.211,0,2.2213,2.2212,2.2198,2.2197,2.2194,2.2184,2.2182,2.2176,2.2168,2.2165,2.2155,2.2152,2.214,2.2135,2.2127,2.2122,2.2121,2.2116,2.2114,2.2117,2.2117,2.2114,2.2113,2.211,2.211,2.211,2.211,0,2.2226,2.2217,2.2213,2.2202,2.2199,2.2198,2.2188,2.2185,2.2178,2.2174,2.2172,2.2161,2.2154,2.2144,2.2135,2.2129,2.2126,2.2123,2.2129,2.2127,2.2129,2.2129,2.2137,2.2138,2.2126,2.2126,2.2126,0,2.2232,2.223,2.2219,2.2216,2.2211,2.2207,2.2202,2.2192,2.2188,2.2179,2.2177,2.217,2.2164,2.2154,2.2144,2.2136,2.2133,2.2136,2.2131,2.2134,2.2132,2.2132,2.2131,2.2137,2.2137,2.2137,2.2138,0,2.2242,2.2238,2.2233,2.2226,2.2222,2.2216,2.2209,2.2207,2.2195,2.2191,2.2185,2.218,2.217,2.2163,2.2154,2.2148,2.214,2.2139,2.2139,2.2141,2.2145,2.2142,2.2131,2.2139,2.2139,2.2139,2.2139,2.2139,2.2251,2.2249,2.2241,2.2235,2.223,2.2224,2.2221,2.2213,2.2208,2.2199,2.2193,2.2187,2.2178,2.2165,2.216,2.2154,2.2151,2.2151,2.215,2.215,2.2151,2.2146,2.2152,2.2152,2.2152,2.2152,2.2152,0,2.2261,2.2255,2.225,2.2241,2.2237,2.2231,2.2223,2.222,2.2214,2.2207,2.2201,2.2193,2.2186,2.2176,2.2168,2.2165,2.2161,2.2163,2.2163,2.2161,2.2155,2.2155,2.2166,2.2166,2.2166,2.2166,2.2166,2.2166,2.2265,2.2262,2.2256,2.2249,2.2243,2.2237,2.2233,2.2228,2.2222,2.2213,2.2208,2.2201,2.2192,2.2183,2.2176,2.2173,2.2171,2.2173,2.2169,2.2163,2.2162,2.2161,2.2161,2.2173,2.2173,2.2176,2.2176,2.2176]}]]